LZB978 LBWN-LBSF

Flight info

Callsign LZB978
Flight time 0h 40m
Altitude 26000
Route DICXA2N/09 DICXA T343 UMPIT
Aircraft A320/M-SDE3FGHIRWY/LB1

Departure

Time 2026-04-30 12:38
Airport Varna Airport (LBWN)

Arrival

Time 2026-04-30 13:18
Airport Sofia Airport (LBSF)
Time Latitude Longitude Altitude Speed Heading
2026-04-30 12:14 43.23613 27.82572 222 ft 0 kts
2026-04-30 12:26 43.23600 27.82570 222 ft 4 kts 358°
2026-04-30 12:26 43.23576 27.82579 225 ft 4 kts 311°
2026-04-30 12:27 43.23566 27.82610 222 ft 4 kts 276°
2026-04-30 12:27 43.23565 27.82626 222 ft 0 kts 276°
2026-04-30 12:30 43.23565 27.82618 222 ft 4 kts 276°
2026-04-30 12:31 43.23572 27.82539 223 ft 13 kts 276°
2026-04-30 12:31 43.23584 27.82386 222 ft 17 kts 276°
2026-04-30 12:31 43.23560 27.82264 222 ft 12 kts 205°
2026-04-30 12:31 43.23499 27.82243 222 ft 7 kts 206°
2026-04-30 12:32 43.23472 27.82193 222 ft 7 kts 232°
2026-04-30 12:32 43.23468 27.82182 222 ft 4 kts 252°
2026-04-30 12:32 43.23477 27.82109 222 ft 14 kts 285°
2026-04-30 12:32 43.23495 27.81993 222 ft 11 kts 278°
2026-04-30 12:33 43.23502 27.81914 222 ft 6 kts 278°
2026-04-30 12:33 43.23513 27.81803 222 ft 19 kts 275°
2026-04-30 12:33 43.23526 27.81647 222 ft 14 kts 277°
2026-04-30 12:33 43.23537 27.81533 222 ft 10 kts 277°
2026-04-30 12:34 43.23543 27.81459 224 ft 6 kts 277°
2026-04-30 12:34 43.23546 27.81423 222 ft 4 kts 275°
2026-04-30 12:34 43.23559 27.81271 222 ft 23 kts 276°
2026-04-30 12:34 43.23577 27.81070 222 ft 19 kts 275°
2026-04-30 12:35 43.23529 27.80948 222 ft 13 kts 202°
2026-04-30 12:35 43.23459 27.80934 222 ft 8 kts 166°
2026-04-30 12:35 43.23411 27.80969 221 ft 14 kts 149°
2026-04-30 12:35 43.23322 27.81073 221 ft 9 kts 108°
2026-04-30 12:36 43.23320 27.81120 221 ft 0 kts 98°
2026-04-30 12:37 43.23320 27.81126 221 ft 10 kts 98°
2026-04-30 12:37 43.23279 27.81583 223 ft 82 kts 97°
2026-04-30 12:37 43.23187 27.82627 223 ft 136 kts 96°
2026-04-30 12:37 43.23063 27.84047 507 ft 159 kts 95°
2026-04-30 12:38 43.22886 27.85622 936 ft 176 kts 98°
2026-04-30 12:38 43.22649 27.87390 1364 ft 201 kts 100°
2026-04-30 12:38 43.22231 27.89318 1911 ft 222 kts 118°
2026-04-30 12:38 43.20979 27.90650 2594 ft 244 kts 162°
2026-04-30 12:39 43.19262 27.90456 3401 ft 261 kts 201°
2026-04-30 12:39 43.17747 27.89013 4325 ft 267 kts 217°
2026-04-30 12:39 43.16302 27.87411 5356 ft 267 kts 220°
2026-04-30 12:39 43.15231 27.85389 6497 ft 260 kts 243°
2026-04-30 12:40 43.14606 27.83124 7626 ft 249 kts 259°
2026-04-30 12:40 43.14390 27.80804 8610 ft 250 kts 265°
2026-04-30 12:40 43.14303 27.78368 9219 ft 263 kts 265°
2026-04-30 12:40 43.14134 27.75885 10017 ft 267 kts 263°
2026-04-30 12:41 43.13910 27.73288 10461 ft 285 kts 262°
2026-04-30 12:41 43.13651 27.70483 10700 ft 309 kts 262°
2026-04-30 12:41 43.13373 27.67476 11074 ft 324 kts 262°
2026-04-30 12:41 43.13093 27.64384 11756 ft 329 kts 262°
2026-04-30 12:42 43.12815 27.61258 12525 ft 332 kts 263°
2026-04-30 12:42 43.12538 27.58108 13289 ft 335 kts 263°
2026-04-30 12:42 43.12262 27.54932 14034 ft 338 kts 263°
2026-04-30 12:42 43.11987 27.51730 14714 ft 340 kts 263°
2026-04-30 12:43 43.11712 27.48513 15402 ft 341 kts 263°
2026-04-30 12:43 43.11435 27.45281 16082 ft 343 kts 263°
2026-04-30 12:43 43.11154 27.42035 16760 ft 344 kts 263°
2026-04-30 12:43 43.10870 27.38776 17381 ft 346 kts 262°
2026-04-30 12:44 43.10582 27.35499 18050 ft 348 kts 262°
2026-04-30 12:44 43.10289 27.32209 18663 ft 349 kts 262°
2026-04-30 12:44 43.09994 27.28900 19206 ft 351 kts 262°
2026-04-30 12:44 43.09698 27.25577 19752 ft 353 kts 262°
2026-04-30 12:45 43.09399 27.22238 20287 ft 354 kts 262°
2026-04-30 12:45 43.09098 27.18882 20810 ft 356 kts 262°
2026-04-30 12:45 43.08794 27.15512 21379 ft 358 kts 262°
2026-04-30 12:45 43.08489 27.12126 21944 ft 360 kts 262°
2026-04-30 12:46 43.08183 27.08713 22539 ft 362 kts 262°
2026-04-30 12:46 43.07874 27.05284 23109 ft 364 kts 262°
2026-04-30 12:46 43.07562 27.01833 23609 ft 366 kts 262°
2026-04-30 12:46 43.07245 26.98371 24039 ft 368 kts 262°
2026-04-30 12:47 43.06925 26.94890 24417 ft 370 kts 262°
2026-04-30 12:47 43.06603 26.91398 24809 ft 371 kts 262°
2026-04-30 12:47 43.06278 26.87898 25224 ft 371 kts 262°
2026-04-30 12:47 43.05949 26.84391 25652 ft 372 kts 262°
2026-04-30 12:48 43.05620 26.80876 26039 ft 373 kts 263°
2026-04-30 12:48 43.05293 26.77350 26159 ft 374 kts 263°
2026-04-30 12:48 43.04964 26.73804 26180 ft 377 kts 263°
2026-04-30 12:48 43.04634 26.70249 26181 ft 378 kts 263°
2026-04-30 12:49 43.04299 26.66685 26179 ft 378 kts 262°
2026-04-30 12:49 43.03963 26.63125 26183 ft 378 kts 263°
2026-04-30 12:49 43.03624 26.59560 26181 ft 378 kts 262°
2026-04-30 12:49 43.03284 26.56002 26181 ft 378 kts 262°
2026-04-30 12:50 43.02944 26.52445 26179 ft 378 kts 262°
2026-04-30 12:50 43.02606 26.48884 26180 ft 378 kts 262°
2026-04-30 12:50 43.02271 26.45373 26183 ft 378 kts 262°
2026-04-30 12:50 43.01928 26.41814 26179 ft 378 kts 262°
2026-04-30 12:51 43.01584 26.38258 26180 ft 378 kts 262°
2026-04-30 12:51 43.01238 26.34700 26184 ft 378 kts 262°
2026-04-30 12:51 43.00888 26.31143 26185 ft 378 kts 262°
2026-04-30 12:51 43.00540 26.27583 26184 ft 378 kts 262°
2026-04-30 12:52 43.00193 26.24024 26187 ft 378 kts 262°
2026-04-30 12:52 42.99845 26.20464 26183 ft 378 kts 262°
2026-04-30 12:52 42.99495 26.16911 26181 ft 378 kts 262°
2026-04-30 12:52 42.99144 26.13358 26182 ft 377 kts 262°
2026-04-30 12:53 42.98791 26.09810 26182 ft 377 kts 262°
2026-04-30 12:53 42.98436 26.06253 26187 ft 378 kts 262°
2026-04-30 12:53 42.98081 26.02703 26190 ft 378 kts 262°
2026-04-30 12:53 42.97725 25.99151 26194 ft 378 kts 262°
2026-04-30 12:54 42.97365 25.95599 26191 ft 378 kts 262°
2026-04-30 12:54 42.97006 25.92046 26192 ft 378 kts 262°
2026-04-30 12:54 42.96646 25.88491 26193 ft 378 kts 262°
2026-04-30 12:54 42.96285 25.84941 26197 ft 378 kts 262°
2026-04-30 12:55 42.95923 25.81391 26198 ft 378 kts 262°
2026-04-30 12:55 42.95560 25.77838 26197 ft 378 kts 262°
2026-04-30 12:55 42.95197 25.74286 26198 ft 378 kts 262°
2026-04-30 12:55 42.94832 25.70739 26199 ft 378 kts 262°
2026-04-30 12:56 42.94465 25.67185 26199 ft 378 kts 262°
2026-04-30 12:56 42.94099 25.63634 26201 ft 378 kts 262°
2026-04-30 12:56 42.93732 25.60087 26205 ft 378 kts 262°
2026-04-30 12:56 42.93362 25.56540 26206 ft 378 kts 262°
2026-04-30 12:57 42.92995 25.53039 26207 ft 378 kts 262°
2026-04-30 12:57 42.92618 25.49450 26210 ft 378 kts 262°
2026-04-30 12:57 42.92250 25.45948 26211 ft 378 kts 262°
2026-04-30 12:57 42.91878 25.42404 26214 ft 378 kts 262°
2026-04-30 12:58 42.91500 25.38814 26214 ft 377 kts 262°
2026-04-30 12:58 42.91132 25.35317 26214 ft 377 kts 262°
2026-04-30 12:58 42.90751 25.31727 26215 ft 377 kts 262°
2026-04-30 12:58 42.90377 25.28234 26220 ft 377 kts 262°
2026-04-30 12:59 42.89996 25.24694 26218 ft 377 kts 262°
2026-04-30 12:59 42.89613 25.21161 26216 ft 377 kts 262°
2026-04-30 12:59 42.89229 25.17625 26222 ft 377 kts 262°
2026-04-30 12:59 42.88844 25.14085 26219 ft 377 kts 262°
2026-04-30 13:00 42.88461 25.10553 26232 ft 376 kts 262°
2026-04-30 13:00 42.88079 25.07031 26241 ft 375 kts 262°
2026-04-30 13:00 42.87698 25.03520 26247 ft 374 kts 262°
2026-04-30 13:00 42.87319 25.00020 26250 ft 373 kts 262°
2026-04-30 13:01 42.86938 24.96523 26175 ft 372 kts 262°
2026-04-30 13:01 42.86558 24.93045 25403 ft 371 kts 262°
2026-04-30 13:01 42.86177 24.89570 24706 ft 370 kts 262°
2026-04-30 13:01 42.85795 24.86115 24042 ft 368 kts 262°
2026-04-30 13:02 42.85414 24.82675 23290 ft 366 kts 262°
2026-04-30 13:02 42.85036 24.79256 22558 ft 365 kts 262°
2026-04-30 13:02 42.84658 24.75852 21927 ft 362 kts 261°
2026-04-30 13:02 42.84280 24.72465 21247 ft 361 kts 261°
2026-04-30 13:03 42.83902 24.69098 20607 ft 358 kts 261°
2026-04-30 13:03 42.83526 24.65755 19982 ft 356 kts 261°
2026-04-30 13:03 42.83150 24.62428 19371 ft 355 kts 260°
2026-04-30 13:03 42.82775 24.59113 18754 ft 354 kts 260°
2026-04-30 13:04 42.82401 24.55811 18120 ft 352 kts 260°
2026-04-30 13:04 42.82028 24.52528 17467 ft 350 kts 260°
2026-04-30 13:04 42.81654 24.49261 16836 ft 348 kts 260°
2026-04-30 13:04 42.81280 24.46007 16267 ft 346 kts 260°
2026-04-30 13:05 42.80907 24.42774 15707 ft 345 kts 260°
2026-04-30 13:05 42.80538 24.39560 15172 ft 343 kts 260°
2026-04-30 13:05 42.80171 24.36361 14658 ft 341 kts 259°
2026-04-30 13:06 42.79440 24.30002 13431 ft 340 kts 260°
2026-04-30 13:06 42.79005 24.26847 12823 ft 338 kts 253°
2026-04-30 13:06 42.78329 24.23797 12256 ft 336 kts 252°
2026-04-30 13:06 42.77636 24.20765 11677 ft 334 kts 253°
2026-04-30 13:07 42.76941 24.17750 11031 ft 334 kts 252°
2026-04-30 13:07 42.76257 24.14796 10870 ft 321 kts 252°
2026-04-30 13:07 42.75598 24.11964 10748 ft 307 kts 252°
2026-04-30 13:07 42.74962 24.09236 10490 ft 300 kts 252°
2026-04-30 13:08 42.74339 24.06545 10128 ft 297 kts 253°
2026-04-30 13:08 42.73723 24.03880 9715 ft 294 kts 253°
2026-04-30 13:08 42.73113 24.01244 9315 ft 291 kts 253°
2026-04-30 13:08 42.72505 23.98632 8913 ft 286 kts 254°
2026-04-30 13:09 42.72114 23.96953 8648 ft 276 kts 254°
2026-04-30 13:09 42.71545 23.94519 8263 ft 264 kts 255°
2026-04-30 13:09 42.71000 23.92197 8007 ft 248 kts 255°
2026-04-30 13:09 42.70500 23.90072 8005 ft 225 kts 255°
2026-04-30 13:10 42.70046 23.88137 7996 ft 207 kts 256°
2026-04-30 13:10 42.69486 23.85748 7769 ft 192 kts 256°
2026-04-30 13:10 42.69219 23.84607 7691 ft 182 kts 256°
2026-04-30 13:10 42.68858 23.83076 7583 ft 160 kts 256°
2026-04-30 13:11 42.68534 23.81692 7418 ft 148 kts 258°
2026-04-30 13:11 42.68226 23.80372 7134 ft 147 kts 258°
2026-04-30 13:11 42.67917 23.79046 6831 ft 147 kts 258°
2026-04-30 13:11 42.67633 23.77712 6487 ft 146 kts 268°
2026-04-30 13:12 42.67600 23.76355 6171 ft 143 kts 277°
2026-04-30 13:12 42.67631 23.75036 6016 ft 135 kts 280°
2026-04-30 13:12 42.67691 23.73719 6020 ft 141 kts 280°
2026-04-30 13:13 42.67844 23.71006 5820 ft 146 kts 281°
2026-04-30 13:13 42.67926 23.69651 5629 ft 146 kts 282°
2026-04-30 13:13 42.68097 23.66906 5253 ft 146 kts 282°
2026-04-30 13:14 42.68183 23.65525 5060 ft 146 kts 281°
2026-04-30 13:14 42.68268 23.64151 4853 ft 146 kts 281°
2026-04-30 13:14 42.68438 23.61420 4446 ft 145 kts 281°
2026-04-30 13:15 42.68523 23.60058 4246 ft 145 kts 280°
2026-04-30 13:15 42.68691 23.57346 3844 ft 144 kts 281°
2026-04-30 13:15 42.68774 23.55993 3648 ft 144 kts 280°
2026-04-30 13:16 42.68857 23.54651 3418 ft 141 kts 279°
2026-04-30 13:16 42.68939 23.53323 3196 ft 140 kts 279°
2026-04-30 13:16 42.69018 23.52020 2970 ft 137 kts 278°
2026-04-30 13:17 42.69176 23.49447 2574 ft 135 kts 278°
2026-04-30 13:17 42.69254 23.48178 2402 ft 135 kts 278°
2026-04-30 13:17 42.69405 23.45648 2053 ft 134 kts 277°
2026-04-30 13:18 42.69482 23.44388 1880 ft 133 kts 277°
2026-04-30 13:18 42.69622 23.42199 1744 ft 78 kts 275°
2026-04-30 13:18 42.69652 23.41679 1751 ft 42 kts 271°
2026-04-30 13:19 42.69671 23.41346 1747 ft 32 kts 275°
2026-04-30 13:19 42.69685 23.41060 1750 ft 29 kts 268°
2026-04-30 13:19 42.69640 23.40806 1745 ft 27 kts 242°
2026-04-30 13:19 42.69619 23.40747 1747 ft 0 kts 246°
2026-04-30 13:20 42.69610 23.40720 1746 ft 14 kts 245°
2026-04-30 13:20 42.69559 23.40569 1743 ft 11 kts 245°
2026-04-30 13:20 42.69543 23.40527 1742 ft 2 kts 242°
2026-04-30 13:20 42.69542 23.40523 1743 ft 0 kts 243°
2026-04-30 13:21 42.69542 23.40522 1743 ft 1 kts 242°
2026-04-30 13:21 42.69485 23.40473 1743 ft 16 kts 194°
2026-04-30 13:21 42.69387 23.40434 1740 ft 13 kts 197°
2026-04-30 13:22 42.69257 23.40380 1748 ft 8 kts 197°
2026-04-30 13:22 42.69203 23.40357 1746 ft 10 kts 197°
2026-04-30 13:22 42.69128 23.40431 1746 ft 7 kts 105°
2026-04-30 13:23 42.69113 23.40503 1746 ft 10 kts 106°
2026-04-30 13:23 42.69081 23.40648 1748 ft 2 kts 111°
2026-04-30 13:24 42.69036 23.40645 1745 ft 4 kts 195°
2026-04-30 13:24 42.69010 23.40635 1746 ft 0 kts 196°